[[{"header":{"parameterUnit":"m.s-1","parameterCategory":2,"la1":30.2991,"la2":30.254,"lo1":-89.0895,"lo2":-89.0444,"dy":0.0017,"dx":0.0017,"nx":28,"ny":28,"refTime":"2025-01-13T03:00:00:Z","depth":"0","parameterNumber":2,"parameterNumberName":"U-component_of_CURRENTS"},"data":[0,0,0,0,0,0,0,0,0,0,0,0,0,0,0,0,0,0,0,0,0,0,0,0,0,0,0,0,0,0,0,0,0,0,0,0,0,0,0,0,0,0,0,0,0,0,0,0,0,0,0,0,0,0,0,0,0,0,0.342,0.342,0,0.3449,0.3449,0.3449,0.3435,0.3434,0.3434,0.3434,0.3419,0.3419,0.3419,0,0,0,0,0,0,0,0,0,0,0,0,0,0.3358,0.3359,0.342,0.342,0.3421,0.3449,0.3449,0.3449,0.3435,0.3434,0.3434,0.3433,0.3419,0.3419,0.3419,0,0,0,0,0,0,0,0,0,0,0,0,0,0.3382,0.3359,0.342,0.342,0.3421,0.3449,0.3449,0.3449,0.3435,0.3434,0.3434,0.3433,0.3419,0.3419,0.3419,0.3431,0,0,0.3419,0.3419,0,0,0,0,0,0,0,0,0.3381,0.3384,0.3419,0.342,0.3421,0.3441,0.3423,0.3442,0.3435,0.3425,0.3434,0.3433,0.3425,0.3425,0.3427,0.343,0.3429,0.3419,0.3419,0.3419,0.3419,0,0,0,0,0,0,0,0.3379,0.3383,0.3427,0.342,0.3421,0.3422,0.3424,0.3426,0.3424,0.3426,0.3426,0.3436,0.3425,0.3427,0.3426,0.3429,0.3419,0.3419,0.3419,0.3419,0.3486,0.3488,0,0,0,0,0,0,0.3384,0.3381,0.3426,0.3429,0.3404,0.3424,0.3426,0.3432,0.3425,0.3425,0.3437,0.3435,0.3427,0.3426,0.3425,0.347,0.3419,0.3419,0.3419,0.3485,0.3487,0.3489,0,0,0,0,0,0,0.3383,0.3388,0.3425,0.3409,0.3414,0.3426,0.3433,0.3433,0.344,0.3435,0.3433,0.3444,0.3426,0.3425,0.3443,0.3468,0.3419,0.3419,0.3483,0.3485,0.3488,0.354,0,0,0,0,0,0,0.3381,0.3387,0.3391,0.3409,0.3416,0.3451,0.3434,0.3434,0.3449,0.3448,0.3441,0.3438,0.3426,0.3443,0.3443,0.3467,0.3419,0.348,0.3484,0.3487,0.3536,0.3544,0.3551,0,0,0,0,0,0.3378,0.3387,0.3391,0.3397,0.3421,0.3452,0.3456,0.3459,0.345,0.3461,0.346,0.3439,0.3465,0.3445,0.3444,0.3469,0.3479,0.3483,0.3487,0.3532,0.3542,0.3551,0,0,0,0,0,0,0.3356,0.3388,0.3392,0.3408,0.3434,0.3452,0.3463,0.3466,0.3474,0.3472,0.3457,0.3456,0.3484,0.3473,0.3452,0.3501,0.347,0.3474,0.3505,0.3514,0.3522,0.3534,0.3419,0,0,0,0,0,0.3357,0.3374,0.3404,0.3418,0.3433,0.345,0.3462,0.3469,0.3481,0.3484,0.348,0.3485,0.3501,0.3504,0.3513,0.3535,0.3548,0.3554,0.3561,0.3567,0.358,0.3628,0.3641,0.3502,0.3502,0.3502,0,0,0.335,0.3372,0.338,0.3415,0.3433,0.3462,0.3454,0.3482,0.3505,0.3481,0.3505,0.3511,0.3515,0.3545,0.3556,0.3536,0.3616,0.3573,0.3578,0.3587,0.3633,0.3647,0.3659,0.3505,0.3505,0.3504,0,0,0.3353,0.337,0.3388,0.3417,0.3457,0.3474,0.3485,0.3513,0.3524,0.3552,0.355,0.3575,0.3583,0.3602,0.361,0.3667,0.3658,0.3667,0.3709,0.3755,0.3767,0.3777,0.3818,0.3831,0.3666,0.3666,0.3666,0,0.3342,0.3372,0.3398,0.343,0.3458,0.3482,0.3512,0.3534,0.3562,0.3584,0.3566,0.3618,0.3615,0.3671,0.369,0.3684,0.3706,0.3669,0.3765,0.3775,0.3785,0.3824,0.3838,0.3669,0.3669,0.3668,0.3668,0,0.3365,0.3392,0.341,0.3458,0.349,0.3523,0.3565,0.3594,0.3608,0.3632,0.3688,0.3695,0.3727,0.3734,0.3725,0.3799,0.3792,0.3771,0.3739,0.3802,0.3839,0.3853,0.3673,0.3672,0.3671,0.3671,0,0,0.3325,0.3408,0.3411,0.3439,0.351,0.3533,0.3592,0.3651,0.369,0.372,0.3775,0.381,0.382,0.3832,0.3834,0.387,0.3954,0.3851,0.3852,0.3886,0.4061,0.4058,0.4073,0.3948,0.3951,0.3953,0.4061,0,0.3332,0.3386,0.3435,0.3485,0.3517,0.3576,0.3626,0.3685,0.3732,0.3791,0.383,0.3877,0.3857,0.3876,0.3916,0.395,0.3992,0.3927,0.3999,0.4001,0.3987,0.4089,0.4005,0.4095,0.4074,0.4076,0.4078,0,0.3332,0.3372,0.3422,0.3503,0.3522,0.3557,0.3646,0.3698,0.3801,0.3845,0.3914,0.3945,0.4024,0.3982,0.4086,0.4046,0.4063,0.4079,0.4083,0.4073,0.4025,0.4028,0.4121,0.4067,0.4099,0.4097,0.4096,0,0.3277,0.3359,0.3395,0.3423,0.3519,0.3552,0.3603,0.3705,0.3776,0.3883,0.395,0.4032,0.4092,0.4132,0.418,0.4138,0.4288,0.4228,0.4245,0.4244,0.4184,0.4174,0.4228,0.4302,0.4301,0.4301,0.4301,0,0.326,0.3285,0.3366,0.3383,0.3434,0.3511,0.3581,0.3657,0.3787,0.387,0.3967,0.4056,0.4135,0.4227,0.4232,0.4308,0.4337,0.4286,0.4287,0.42,0.4191,0.4148,0.4112,0.4305,0.4304,0.4303,0.4303,0,0.3193,0.3248,0.3291,0.3379,0.3408,0.3439,0.3571,0.3624,0.3762,0.388,0.3924,0.4113,0.4234,0.4313,0.4402,0.4392,0.4347,0.445,0.4348,0.4334,0.4266,0.4236,0.4115,0.3972,0.4481,0.4482,0.4482,0,0.3164,0.3178,0.3265,0.3285,0.3322,0.3387,0.3433,0.3586,0.3661,0.3899,0.3952,0.4146,0.4263,0.4442,0.4476,0.4533,0.4382,0.446,0.4359,0.429,0.4256,0.4054,0.3925,0.43,0.43,0.4299,0.4298,0,0.3106,0.3136,0.3171,0.3217,0.3255,0.3308,0.3392,0.3463,0.3636,0.3765,0.3943,0.4072,0.4302,0.4367,0.4486,0.4493,0.4286,0.4446,0.4403,0.4162,0.3917,0.377,0.4199,0.4292,0.4293,0.4293,0.4293,0.4294,0.3054,0.3061,0.3103,0.3138,0.3177,0.3204,0.3214,0.3328,0.3448,0.3612,0.3818,0.3979,0.422,0.4403,0.4381,0.4364,0.4253,0.4262,0.4246,0.4058,0.387,0.4294,0.4366,0.4367,0.4367,0.4368,0.4369,0,0.2973,0.299,0.3021,0.3044,0.3034,0.3094,0.316,0.3156,0.3228,0.3461,0.3611,0.3891,0.4041,0.4195,0.4325,0.4208,0.3956,0.4102,0.3809,0.3698,0.4135,0.4081,0.4059,0.4059,0.4059,0.4059,0.4059,0.4059,0.2931,0.2916,0.2932,0.2887,0.2898,0.2842,0.2847,0.2879,0.3012,0.3188,0.3367,0.357,0.4009,0.4292,0.4271,0.4148,0.3798,0.3663,0.3573,0.3945,0.3957,0.3969,0.391,0.3853,0.3853,0.2979,0.2973,0.2969]},{"header":{"parameterUnit":"m.s-1","parameterCategory":2,"la1":30.2991,"la2":30.254,"lo1":-89.0895,"lo2":-89.0444,"dy":0.0017,"dx":0.0017,"nx":28,"ny":28,"refTime":"2025-01-13T03:00:00:Z","depth":"0","parameterNumber":3,"parameterNumberName":"V-component_of_CURRENTS"},"data":[0,0,0,0,0,0,0,0,0,0,0,0,0,0,0,0,0,0,0,0,0,0,0,0,0,0,0,0,0,0,0,0,0,0,0,0,0,0,0,0,0,0,0,0,0,0,0,0,0,0,0,0,0,0,0,0,0,0,-0.0069,-0.0069,0,-0.0144,-0.0145,-0.0146,-0.0196,-0.0197,-0.0197,-0.0197,-0.029,-0.0293,-0.0295,0,0,0,0,0,0,0,0,0,0,0,0,0,-0.0043,-0.0042,-0.0069,-0.0069,-0.007,-0.0143,-0.0145,-0.0146,-0.0196,-0.0197,-0.0197,-0.0197,-0.029,-0.0292,-0.0295,0,0,0,0,0,0,0,0,0,0,0,0,0,-0.0081,-0.0042,-0.0069,-0.0103,-0.0106,-0.0143,-0.0145,-0.0146,-0.0196,-0.0197,-0.0197,-0.0197,-0.0289,-0.0292,-0.0296,-0.0312,0,0,-0.0306,-0.0308,0,0,0,0,0,0,0,0,-0.0079,-0.0082,-0.0097,-0.01,-0.0104,-0.0159,-0.017,-0.0202,-0.0196,-0.0164,-0.0197,-0.0197,-0.0247,-0.0254,-0.027,-0.0317,-0.0321,-0.0307,-0.0309,-0.031,-0.0311,0,0,0,0,0,0,0,-0.0076,-0.008,-0.0101,-0.0098,-0.0102,-0.0139,-0.0144,-0.0176,-0.0205,-0.0167,-0.017,-0.0175,-0.0249,-0.0266,-0.0272,-0.0322,-0.0306,-0.031,-0.0312,-0.0313,-0.0379,-0.0378,0,0,0,0,0,0,-0.0058,-0.0077,-0.0098,-0.0103,-0.0089,-0.0139,-0.0145,-0.0143,-0.0205,-0.0213,-0.0175,-0.0177,-0.026,-0.0268,-0.0276,-0.0277,-0.031,-0.0313,-0.0315,-0.0379,-0.0379,-0.0378,0,0,0,0,0,0,-0.0057,-0.0059,-0.0095,-0.009,-0.0097,-0.0138,-0.0136,-0.0144,-0.0157,-0.021,-0.022,-0.0178,-0.0261,-0.0271,-0.0295,-0.0281,-0.0315,-0.0318,-0.0379,-0.0379,-0.0378,-0.0292,0,0,0,0,0,0,-0.0056,-0.0058,-0.0053,-0.0089,-0.0097,-0.0103,-0.0136,-0.0145,-0.0159,-0.0162,-0.0216,-0.0225,-0.0262,-0.029,-0.0299,-0.0287,-0.0321,-0.038,-0.0379,-0.0379,-0.0296,-0.0289,-0.0283,0,0,0,0,0,-0.0055,-0.0037,-0.0052,-0.0055,-0.0087,-0.0102,-0.011,-0.0142,-0.0158,-0.0156,-0.0194,-0.0223,-0.0292,-0.0292,-0.0303,-0.0292,-0.038,-0.0379,-0.0379,-0.0299,-0.029,-0.0283,0,0,0,0,0,0,-0.0023,-0.0042,-0.0059,-0.0048,-0.007,-0.011,-0.0111,-0.0134,-0.0164,-0.0166,-0.0219,-0.0231,-0.0248,-0.0282,-0.0281,-0.031,-0.0341,-0.0342,-0.0276,-0.0269,-0.0263,-0.0238,-0.0324,0,0,0,0,0,-0.0013,-0.0005,-0.0034,-0.0027,-0.0033,-0.0072,-0.0083,-0.0103,-0.0132,-0.0146,-0.0184,-0.0223,-0.0255,-0.027,-0.0305,-0.0318,-0.0355,-0.0319,-0.0313,-0.0307,-0.0295,-0.0344,-0.034,-0.0376,-0.0376,-0.0376,0,0,0.0,-0.0009,-0.0006,-0.002,-0.004,-0.0034,-0.0079,-0.0085,-0.0082,-0.0151,-0.0159,-0.0203,-0.0254,-0.027,-0.0281,-0.0295,-0.0316,-0.0306,-0.0301,-0.0292,-0.0343,-0.0339,-0.0336,-0.0375,-0.0375,-0.0375,0,0,0.0039,0.0025,0.0046,0.0036,0.0018,-0.0004,0.0001,-0.0033,-0.005,-0.0067,-0.0113,-0.0146,-0.0196,-0.0226,-0.0249,-0.023,-0.0283,-0.0243,-0.019,-0.0237,-0.0234,-0.0232,-0.0268,-0.027,-0.0238,-0.0238,-0.0238,0,0.0056,0.008,0.0048,0.0067,0.007,0.0019,0.0045,0.002,-0.0018,-0.0025,-0.0056,-0.0128,-0.0173,-0.0189,-0.0185,-0.0214,-0.0248,-0.0211,-0.0227,-0.0226,-0.0226,-0.0263,-0.0267,-0.0234,-0.0234,-0.0235,-0.0235,0,0.0111,0.0129,0.0143,0.0151,0.0147,0.0162,0.013,0.0121,0.009,0.0061,0.0032,-0.0039,-0.0078,-0.0102,-0.0139,-0.0152,-0.0179,-0.0214,-0.0242,-0.0217,-0.0258,-0.0263,-0.0228,-0.0229,-0.023,-0.0231,0,0,0.016,0.018,0.0186,0.0209,0.0198,0.0205,0.0211,0.0205,0.0218,0.0155,0.016,0.0087,0.0042,0.0013,-0.0044,-0.0088,-0.0119,-0.0141,-0.0146,-0.0168,-0.0215,-0.0237,-0.0245,-0.0158,-0.0159,-0.0159,-0.0243,0,0.0217,0.0278,0.0268,0.0324,0.0355,0.0319,0.0334,0.0317,0.0285,0.0274,0.019,0.0167,0.0088,0.0072,0.0014,-0.0082,-0.0129,-0.0092,-0.0244,-0.0248,-0.0263,-0.025,-0.0231,-0.0305,-0.0249,-0.025,-0.025,0,0.0282,0.0316,0.0382,0.0424,0.0435,0.0452,0.0471,0.0479,0.0442,0.0414,0.0363,0.0298,0.0231,0.0154,0.0002,0.0028,-0.0081,-0.0166,-0.0172,-0.0224,-0.0279,-0.0324,-0.0316,-0.0534,-0.0259,-0.0258,-0.0257,0,0.0345,0.0401,0.0461,0.0473,0.0503,0.0523,0.0535,0.052,0.0552,0.0503,0.0513,0.0404,0.0365,0.0211,0.0035,0.0018,-0.0138,-0.0188,-0.031,-0.0313,-0.0341,-0.0345,-0.0554,-0.0297,-0.0296,-0.0296,-0.0296,0,0.0418,0.0467,0.0494,0.0526,0.0606,0.0592,0.0663,0.0653,0.0662,0.0713,0.0592,0.0606,0.0377,0.0262,0.0078,-0.0121,-0.0109,-0.0293,-0.0335,-0.0311,-0.0311,-0.0539,-0.0687,-0.0299,-0.0299,-0.0298,-0.0298,0,0.0482,0.0497,0.0571,0.0615,0.0638,0.0691,0.0766,0.0817,0.0802,0.0863,0.0859,0.0763,0.0611,0.0379,0.0135,-0.0046,-0.0385,-0.0325,-0.0274,-0.0309,-0.0629,-0.0772,-0.1046,-0.1148,-0.0473,-0.0474,-0.0475,0,0.052,0.0564,0.0644,0.0698,0.072,0.0799,0.0862,0.0884,0.0953,0.0971,0.1018,0.0897,0.0847,0.048,0.0133,-0.019,-0.0418,-0.0398,-0.0436,-0.064,-0.0832,-0.0935,-0.1008,-0.0441,-0.0442,-0.0442,-0.0442,0,0.0597,0.0619,0.0681,0.0795,0.0869,0.0973,0.1064,0.1146,0.1181,0.1239,0.1294,0.1258,0.0911,0.0609,0.0151,-0.0099,-0.0571,-0.0417,-0.0649,-0.0839,-0.0947,-0.1065,-0.0391,-0.0446,-0.0446,-0.0445,-0.0445,-0.0445,0.0655,0.0712,0.0792,0.0905,0.0999,0.1127,0.1229,0.134,0.1473,0.1582,0.1526,0.153,0.1058,0.0448,0.0071,-0.0593,-0.0622,-0.0781,-0.0941,-0.1026,-0.1128,-0.0454,-0.0546,-0.0546,-0.0546,-0.0546,-0.0547,0,0.0732,0.0794,0.0899,0.1029,0.1146,0.1183,0.1356,0.147,0.1644,0.1761,0.1822,0.1617,0.1027,0.04,-0.0479,-0.0982,-0.1186,-0.1287,-0.1438,-0.1489,-0.0898,-0.0897,-0.1043,-0.1043,-0.1043,-0.1042,-0.1042,-0.1042,0.0771,0.0882,0.0933,0.113,0.1226,0.1396,0.1502,0.167,0.1806,0.1962,0.2001,0.1983,0.1513,-0.0093,-0.1203,-0.1493,-0.1872,-0.1987,-0.2171,-0.1778,-0.1743,-0.1709,-0.174,-0.2062,-0.2063,-0.266,-0.2667,-0.2672]}],[{"header":{"parameterUnit":"m.s-1","parameterCategory":2,"la1":30.2991,"la2":30.254,"lo1":-89.0895,"lo2":-89.0444,"dy":0.0017,"dx":0.0017,"nx":28,"ny":28,"refTime":"2025-01-13T03:00:00:Z","depth":"2","parameterNumber":2,"parameterNumberName":"U-component_of_CURRENTS"},"data":[0,0,0,0,0,0,0,0,0,0,0,0,0,0,0,0,0,0,0,0,0,0,0,0,0,0,0,0,0,0,0,0,0,0,0,0,0,0,0,0,0,0,0,0,0,0,0,0,0,0,0,0,0,0,0,0,0,0,0.3317,0.3317,0,0.3347,0.3347,0.3347,0.3339,0.3338,0.3338,0.3338,0.3331,0.3331,0.3331,0,0,0,0,0,0,0,0,0,0,0,0,0,0.3255,0.3256,0.3317,0.3317,0.3318,0.3347,0.3347,0.3347,0.3339,0.3338,0.3338,0.3338,0.3331,0.3331,0.3331,0,0,0,0,0,0,0,0,0,0,0,0,0,0.3279,0.3256,0.3317,0.332,0.3321,0.3347,0.3347,0.3347,0.3339,0.3338,0.3338,0.3337,0.3331,0.3331,0.3331,0.3339,0,0,0.3331,0.3331,0,0,0,0,0,0,0,0,0.3278,0.3281,0.3319,0.332,0.3321,0.3342,0.3323,0.3344,0.3339,0.3328,0.3338,0.3337,0.3334,0.3334,0.3335,0.3339,0.3339,0.3331,0.3331,0.3331,0.3331,0,0,0,0,0,0,0,0.3276,0.328,0.3325,0.332,0.3321,0.3322,0.3325,0.3327,0.3329,0.3329,0.3329,0.3339,0.3334,0.3335,0.3335,0.3339,0.3331,0.3331,0.3331,0.3332,0.3402,0.3404,0,0,0,0,0,0,0.3281,0.3278,0.3324,0.3326,0.3303,0.3324,0.3327,0.3333,0.333,0.333,0.3339,0.3339,0.3335,0.3335,0.3335,0.3384,0.3331,0.3332,0.3332,0.34,0.3403,0.3404,0,0,0,0,0,0,0.328,0.3285,0.3323,0.3306,0.3312,0.3326,0.3332,0.3334,0.3344,0.3339,0.3338,0.335,0.3335,0.3335,0.3355,0.3382,0.3332,0.3332,0.3398,0.3401,0.3403,0.3457,0,0,0,0,0,0,0.3278,0.3284,0.329,0.3307,0.3313,0.3349,0.3333,0.3335,0.3352,0.3352,0.3348,0.3346,0.3335,0.3355,0.3355,0.3381,0.3332,0.3396,0.3399,0.3403,0.3453,0.3461,0.3468,0,0,0,0,0,0.3275,0.3285,0.329,0.3296,0.3321,0.335,0.3354,0.3359,0.3353,0.3365,0.3367,0.3347,0.3377,0.3357,0.3356,0.3383,0.3394,0.3398,0.3402,0.3449,0.3459,0.3468,0,0,0,0,0,0,0.3257,0.3287,0.3292,0.3309,0.3334,0.3351,0.3364,0.3368,0.3378,0.3379,0.3366,0.3365,0.3396,0.3386,0.3364,0.3416,0.3384,0.3389,0.342,0.343,0.3437,0.3449,0.3332,0,0,0,0,0,0.3258,0.3277,0.3304,0.332,0.3335,0.3352,0.3364,0.3373,0.3386,0.339,0.3389,0.3395,0.3413,0.3417,0.3427,0.345,0.3462,0.347,0.3478,0.3484,0.3496,0.3542,0.3555,0.3418,0.3418,0.3418,0,0,0.3254,0.3276,0.3284,0.3318,0.3336,0.3364,0.3357,0.3386,0.341,0.3388,0.3415,0.3422,0.3427,0.3458,0.3471,0.3451,0.3532,0.349,0.3495,0.3503,0.3548,0.3561,0.3573,0.3421,0.342,0.342,0,0,0.3259,0.3278,0.3296,0.3324,0.3364,0.3379,0.3392,0.3419,0.3432,0.3462,0.346,0.3488,0.3498,0.3516,0.3525,0.3582,0.3574,0.3584,0.3627,0.3672,0.3683,0.3694,0.3732,0.3745,0.3584,0.3584,0.3584,0,0.3252,0.3281,0.3306,0.3338,0.3365,0.3389,0.3418,0.3441,0.347,0.3493,0.3478,0.3532,0.353,0.3585,0.3605,0.36,0.3621,0.3587,0.3681,0.3692,0.3701,0.3738,0.3752,0.3587,0.3587,0.3587,0.3586,0,0.3275,0.3303,0.3321,0.3368,0.3399,0.3432,0.3472,0.3503,0.352,0.3544,0.3601,0.3609,0.3643,0.365,0.3642,0.3716,0.3709,0.3688,0.3655,0.3718,0.3753,0.3767,0.3592,0.3591,0.359,0.3589,0,0,0.3241,0.332,0.3324,0.3352,0.3421,0.3442,0.3501,0.3559,0.3599,0.3631,0.3687,0.3723,0.3735,0.3747,0.375,0.3785,0.3868,0.3768,0.3769,0.3801,0.3972,0.3961,0.3974,0.3863,0.3866,0.3868,0.3971,0,0.325,0.3303,0.3348,0.3399,0.343,0.3486,0.3536,0.3594,0.3642,0.3701,0.3741,0.379,0.3771,0.3792,0.3831,0.3865,0.3906,0.3843,0.391,0.3912,0.3891,0.399,0.3655,0.3719,0.3984,0.3986,0.3988,0,0.3252,0.329,0.3339,0.3417,0.3436,0.3471,0.3559,0.361,0.3712,0.3756,0.3825,0.3857,0.3936,0.3897,0.3997,0.3959,0.3976,0.3991,0.3994,0.3976,0.3927,0.3698,0.3733,0.401,0.4008,0.4006,0.4005,0,0.3201,0.328,0.3316,0.3343,0.3435,0.3469,0.352,0.362,0.3689,0.3796,0.3862,0.3943,0.4004,0.4042,0.4089,0.4049,0.4193,0.4135,0.4143,0.4141,0.3866,0.3837,0.4205,0.4205,0.4205,0.4205,0.4204,0,0.3186,0.3212,0.3291,0.3307,0.3359,0.3433,0.3504,0.3578,0.3705,0.3786,0.3882,0.3967,0.4046,0.4134,0.4139,0.4207,0.4239,0.4183,0.4181,0.3877,0.385,0.41,0.4086,0.4209,0.4208,0.4207,0.4206,0,0.3124,0.3177,0.3219,0.3306,0.3335,0.3367,0.3497,0.3549,0.3685,0.3799,0.3844,0.4024,0.4139,0.4215,0.43,0.4287,0.4331,0.4337,0.3985,0.3942,0.423,0.4218,0.4356,0.4357,0.4357,0.4358,0.4358,0,0.3097,0.3112,0.3197,0.3217,0.3255,0.332,0.3366,0.3515,0.3587,0.3817,0.3868,0.4054,0.4156,0.4323,0.4315,0.4356,0.4389,0.407,0.3938,0.4269,0.4253,0.424,0.4228,0.3584,0.3578,0.3573,0.3569,0,0.3042,0.3073,0.3107,0.3153,0.3193,0.3243,0.3326,0.3394,0.3562,0.3683,0.3849,0.3964,0.4144,0.4063,0.4156,0.412,0.4038,0.3979,0.4414,0.3621,0.3555,0.3536,0.3545,0.3526,0.353,0.3533,0.3536,0.3537,0.2994,0.3001,0.3043,0.3078,0.3118,0.3142,0.315,0.3249,0.3357,0.3476,0.3681,0.3729,0.3807,0.3795,0.3709,0.3641,0.3913,0.371,0.3718,0.3732,0.3648,0.359,0.355,0.3554,0.3558,0.3561,0.3564,0,0.2911,0.2933,0.2963,0.2985,0.2968,0.3037,0.3097,0.3059,0.3106,0.3246,0.335,0.3148,0.3152,0.3213,0.3066,0.3119,0.3009,0.2977,0.2772,0.2822,0.2865,0.2726,0.2389,0.2385,0.2381,0.2377,0,0,0.2869,0.2851,0.2865,0.2816,0.2833,0.2761,0.2763,0.2734,0.2779,0.2756,0.2758,0.2996,0.3145,0.2704,0.2684,0.2501,0.2622,0.2409,0.3365,0.3174,0.321,0.3323,0.3175,0,0,0,0,0]},{"header":{"parameterUnit":"m.s-1","parameterCategory":2,"la1":30.2991,"la2":30.254,"lo1":-89.0895,"lo2":-89.0444,"dy":0.0017,"dx":0.0017,"nx":28,"ny":28,"refTime":"2025-01-13T03:00:00:Z","depth":"2","parameterNumber":3,"parameterNumberName":"V-component_of_CURRENTS"},"data":[0,0,0,0,0,0,0,0,0,0,0,0,0,0,0,0,0,0,0,0,0,0,0,0,0,0,0,0,0,0,0,0,0,0,0,0,0,0,0,0,0,0,0,0,0,0,0,0,0,0,0,0,0,0,0,0,0,0,0.0023,0.0022,0,-0.005,-0.0051,-0.0052,-0.0102,-0.0103,-0.0103,-0.0103,-0.0194,-0.0196,-0.0199,0,0,0,0,0,0,0,0,0,0,0,0,0,0.0049,0.0049,0.0023,0.0022,0.0021,-0.0049,-0.0051,-0.0052,-0.0102,-0.0103,-0.0103,-0.0103,-0.0194,-0.0196,-0.0199,0,0,0,0,0,0,0,0,0,0,0,0,0,0.0012,0.0049,0.0023,-0.0011,-0.0015,-0.0049,-0.0051,-0.0052,-0.0102,-0.0103,-0.0103,-0.0103,-0.0193,-0.0196,-0.0199,-0.0213,0,0,-0.0209,-0.0211,0,0,0,0,0,0,0,0,0.0014,0.001,-0.0005,-0.0009,-0.0013,-0.0066,-0.0075,-0.0106,-0.0102,-0.0071,-0.0103,-0.0103,-0.0152,-0.0158,-0.0174,-0.0217,-0.0221,-0.021,-0.0212,-0.0213,-0.0214,0,0,0,0,0,0,0,0.0017,0.0013,-0.0008,-0.0006,-0.0011,-0.0046,-0.0051,-0.0081,-0.011,-0.0074,-0.0077,-0.0082,-0.0154,-0.017,-0.0176,-0.0223,-0.021,-0.0213,-0.0215,-0.0216,-0.0279,-0.0278,0,0,0,0,0,0,0.0033,0.0016,-0.0006,-0.001,0.0002,-0.0046,-0.0052,-0.005,-0.011,-0.0119,-0.0082,-0.0084,-0.0164,-0.0172,-0.018,-0.0181,-0.0213,-0.0216,-0.0218,-0.0279,-0.0278,-0.0278,0,0,0,0,0,0,0.0034,0.0032,-0.0003,0.0002,-0.0004,-0.0045,-0.0043,-0.0051,-0.0064,-0.0115,-0.0125,-0.0086,-0.0165,-0.0175,-0.0198,-0.0185,-0.0218,-0.0221,-0.0279,-0.0279,-0.0278,-0.0196,0,0,0,0,0,0,0.0036,0.0033,0.0038,0.0004,-0.0004,-0.0011,-0.0043,-0.0052,-0.0066,-0.007,-0.0122,-0.0131,-0.0166,-0.0193,-0.0202,-0.0191,-0.0223,-0.028,-0.0279,-0.0278,-0.0199,-0.0192,-0.0187,0,0,0,0,0,0.0037,0.0053,0.0039,0.0036,0.0005,-0.001,-0.0017,-0.0049,-0.0066,-0.0064,-0.01,-0.0129,-0.0195,-0.0195,-0.0206,-0.0195,-0.028,-0.0279,-0.0278,-0.0201,-0.0194,-0.0187,0,0,0,0,0,0,0.0067,0.0049,0.0032,0.0042,0.0021,-0.0017,-0.0019,-0.0042,-0.0071,-0.0074,-0.0125,-0.0136,-0.0154,-0.0186,-0.0185,-0.0213,-0.0243,-0.0244,-0.0181,-0.0174,-0.0168,-0.0144,-0.0226,0,0,0,0,0,0.0076,0.0084,0.0056,0.0063,0.0057,0.0019,0.0007,-0.0012,-0.0041,-0.0054,-0.0091,-0.013,-0.0159,-0.0174,-0.0208,-0.022,-0.0257,-0.0222,-0.0215,-0.021,-0.0199,-0.0247,-0.0244,-0.0276,-0.0276,-0.0276,0,0,0.0089,0.008,0.0083,0.0069,0.0049,0.0055,0.0011,0.0004,0.0008,-0.0059,-0.0067,-0.0111,-0.0159,-0.0174,-0.0184,-0.0198,-0.022,-0.0209,-0.0204,-0.0195,-0.0245,-0.0242,-0.0239,-0.0275,-0.0275,-0.0275,0,0,0.0126,0.0111,0.0132,0.0122,0.0104,0.0084,0.0087,0.0054,0.0037,0.0021,-0.0024,-0.0056,-0.0104,-0.0133,-0.0154,-0.0135,-0.0188,-0.0149,-0.0097,-0.0144,-0.0141,-0.014,-0.0177,-0.0179,-0.0144,-0.0144,-0.0143,0,0.0141,0.0165,0.0134,0.0152,0.0155,0.0105,0.013,0.0106,0.0068,0.0062,0.0031,-0.0039,-0.0082,-0.0097,-0.0093,-0.012,-0.0154,-0.0118,-0.0135,-0.0134,-0.0134,-0.0172,-0.0176,-0.014,-0.014,-0.014,-0.0141,0,0.0194,0.0212,0.0225,0.0233,0.023,0.0243,0.0213,0.0203,0.0172,0.0144,0.0116,0.0047,0.001,-0.0014,-0.0049,-0.0062,-0.0089,-0.0122,-0.0149,-0.0125,-0.0168,-0.0173,-0.0134,-0.0135,-0.0136,-0.0137,0,0,0.024,0.026,0.0266,0.0289,0.0278,0.0286,0.0291,0.0285,0.0298,0.0236,0.024,0.017,0.0125,0.0098,0.0043,-0.0001,-0.0033,-0.0053,-0.0057,-0.0081,-0.013,-0.0153,-0.0162,-0.0071,-0.0071,-0.0072,-0.0159,0,0.0294,0.0354,0.0345,0.04,0.043,0.0396,0.0411,0.0394,0.0363,0.0351,0.0269,0.0247,0.017,0.0154,0.0097,0.0003,-0.0044,-0.0006,-0.0157,-0.0161,-0.0178,-0.0168,-0.013,-0.0205,-0.0164,-0.0165,-0.0166,0,0.0357,0.039,0.0455,0.0498,0.0508,0.0524,0.0544,0.0552,0.0515,0.0487,0.0437,0.0373,0.0307,0.0232,0.0082,0.0109,0.0001,-0.0082,-0.0089,-0.0141,-0.0194,-0.0224,-0.0216,-0.0175,-0.0174,-0.0174,-0.0173,0,0.0417,0.0473,0.0531,0.0543,0.0574,0.0592,0.0605,0.059,0.0621,0.0572,0.0581,0.0474,0.0435,0.0285,0.0111,0.0096,-0.006,-0.0106,-0.023,-0.0233,-0.0245,-0.0248,-0.0215,-0.0215,-0.0214,-0.0214,-0.0214,0,0.0487,0.0534,0.0562,0.0593,0.0671,0.0659,0.0728,0.0718,0.0726,0.0776,0.0658,0.0669,0.0445,0.0332,0.0152,-0.0046,-0.0033,-0.0214,-0.0256,-0.0215,-0.0214,-0.0226,-0.0226,-0.0217,-0.0217,-0.0216,-0.0215,0,0.0547,0.0562,0.0636,0.0679,0.0702,0.0754,0.0828,0.0878,0.0862,0.0921,0.0916,0.082,0.0668,0.0441,0.0201,0.0024,-0.0175,-0.0251,-0.0183,-0.0215,-0.0328,-0.0323,-0.0397,-0.0398,-0.04,-0.0401,-0.0402,0,0.0584,0.0627,0.0706,0.0759,0.0781,0.0858,0.092,0.0942,0.1009,0.1024,0.1069,0.0947,0.0891,0.0528,0.0192,-0.0124,-0.0173,-0.0311,-0.0342,-0.0313,-0.0346,-0.0339,-0.0332,-0.0326,-0.0327,-0.0327,-0.0327,0,0.0658,0.0679,0.074,0.0852,0.0925,0.1027,0.1117,0.1196,0.123,0.1283,0.1329,0.1288,0.0946,0.0639,0.0191,-0.003,-0.0261,-0.0325,-0.0314,-0.0283,-0.0253,-0.0283,-0.0278,-0.0328,-0.0328,-0.0328,-0.0328,-0.0328,0.0714,0.077,0.0848,0.0958,0.1051,0.1176,0.1276,0.1378,0.1503,0.1583,0.1532,0.1467,0.1106,0.0547,0.0158,-0.027,-0.0255,-0.0405,-0.0402,-0.0399,-0.0372,-0.0346,-0.0434,-0.0434,-0.0434,-0.0435,-0.0435,0,0.0788,0.0849,0.0952,0.1079,0.1193,0.1231,0.14,0.1497,0.1652,0.1704,0.1739,0.1408,0.1057,0.0627,0.0007,-0.0355,-0.0385,-0.048,-0.0428,-0.0423,-0.042,-0.0393,-0.0461,-0.0462,-0.0463,-0.0464,0,0,0.0827,0.0935,0.0985,0.1176,0.127,0.1433,0.1536,0.167,0.1749,0.181,0.1773,0.169,0.1183,0.0738,0.0245,-0.0112,-0.0192,-0.0191,-0.013,-0.0006,0.0002,-0.0336,-0.0284,0,0,0,0,0]}],[{"header":{"parameterUnit":"m.s-1","parameterCategory":2,"la1":30.2991,"la2":30.254,"lo1":-89.0895,"lo2":-89.0444,"dy":0.0017,"dx":0.0017,"nx":28,"ny":28,"refTime":"2025-01-13T03:00:00:Z","depth":"4","parameterNumber":2,"parameterNumberName":"U-component_of_CURRENTS"},"data":[0,0,0,0,0,0,0,0,0,0,0,0,0,0,0,0,0,0,0,0,0,0,0,0,0,0,0,0,0,0,0,0,0,0,0,0,0,0,0,0,0,0,0,0,0,0,0,0,0,0,0,0,0,0,0,0,0,0,0.2186,0.2188,0,0.227,0.227,0.2271,0.234,0.2341,0.2343,0.2343,0.2439,0.2441,0.2442,0,0,0,0,0,0,0,0,0,0,0,0,0,0.2078,0.2079,0.2186,0.2188,0.2189,0.227,0.227,0.2271,0.234,0.2342,0.2343,0.2344,0.2439,0.2441,0.2442,0,0,0,0,0,0,0,0,0,0,0,0,0,0.2136,0.208,0.2186,0.2235,0.2241,0.2269,0.227,0.2271,0.234,0.2342,0.2343,0.2345,0.2438,0.244,0.2443,0.2427,0,0,0.245,0.2451,0,0,0,0,0,0,0,0,0.2133,0.214,0.2227,0.2232,0.2238,0.2299,0.2267,0.2325,0.234,0.2299,0.2343,0.2345,0.2394,0.24,0.2408,0.2431,0.2436,0.245,0.2452,0.2453,0.2453,0,0,0,0,0,0,0,0.2129,0.2137,0.2216,0.2228,0.2235,0.225,0.226,0.2278,0.2335,0.2303,0.2309,0.2322,0.2397,0.2406,0.2411,0.2437,0.245,0.2452,0.2454,0.2455,0.26,0.2603,0,0,0,0,0,0,0.2124,0.2133,0.2214,0.2219,0.2192,0.2251,0.2262,0.2275,0.2335,0.2346,0.2321,0.2325,0.2401,0.2408,0.2415,0.253,0.2453,0.2455,0.2456,0.2598,0.2601,0.2604,0,0,0,0,0,0,0.2121,0.213,0.221,0.218,0.2192,0.2252,0.2266,0.2276,0.2334,0.2349,0.236,0.2374,0.2402,0.2411,0.2479,0.2529,0.2456,0.2458,0.2595,0.2599,0.2602,0.2676,0,0,0,0,0,0,0.2117,0.2128,0.2158,0.218,0.2194,0.2259,0.2265,0.2277,0.2338,0.2346,0.2397,0.2404,0.2404,0.2476,0.2482,0.2531,0.246,0.2592,0.2597,0.2601,0.2671,0.2682,0.2692,0,0,0,0,0,0.2113,0.2139,0.2159,0.217,0.2225,0.226,0.2269,0.2314,0.2339,0.237,0.2413,0.2405,0.2509,0.248,0.2486,0.2537,0.259,0.2596,0.2601,0.2666,0.268,0.2692,0,0,0,0,0,0,0.2108,0.2149,0.2171,0.2211,0.225,0.2274,0.2315,0.234,0.2396,0.2421,0.2432,0.2442,0.2521,0.252,0.2487,0.2594,0.255,0.2557,0.2598,0.2611,0.2621,0.2623,0.2462,0,0,0,0,0,0.2119,0.2156,0.219,0.2229,0.2252,0.2292,0.2322,0.2353,0.2394,0.2423,0.2458,0.2501,0.2539,0.257,0.2598,0.2653,0.2655,0.2693,0.2704,0.2712,0.2721,0.2765,0.278,0.2622,0.2622,0.2621,0,0,0.2129,0.2159,0.2182,0.2232,0.2269,0.2307,0.2316,0.2376,0.242,0.2422,0.2511,0.254,0.2562,0.2629,0.2664,0.2641,0.2762,0.2719,0.2727,0.273,0.2773,0.2788,0.2801,0.2625,0.2625,0.2624,0,0,0.215,0.2196,0.2229,0.2266,0.233,0.2352,0.238,0.2434,0.2479,0.2551,0.2571,0.2634,0.2691,0.2719,0.2736,0.2822,0.2814,0.2842,0.2899,0.2942,0.2955,0.2967,0.2995,0.3008,0.2848,0.2848,0.2848,0,0.2165,0.2208,0.2246,0.2286,0.2327,0.2377,0.2421,0.2466,0.254,0.2584,0.2596,0.2709,0.2731,0.2806,0.2843,0.2846,0.2866,0.2845,0.2955,0.2966,0.2976,0.3002,0.3016,0.2852,0.2851,0.2851,0.2851,0,0.2194,0.2249,0.2276,0.2343,0.2389,0.2441,0.2499,0.2565,0.2625,0.2666,0.2773,0.281,0.2876,0.2898,0.2899,0.2993,0.2982,0.296,0.2918,0.2997,0.3019,0.3032,0.2858,0.2857,0.2855,0.2854,0,0,0.2169,0.2276,0.229,0.2334,0.2429,0.2461,0.2553,0.2635,0.2701,0.2785,0.287,0.2949,0.2984,0.3007,0.3026,0.3069,0.3162,0.3058,0.3059,0.3078,0.3263,0.3069,0.3064,0.3165,0.3168,0.317,0.325,0,0.2185,0.2261,0.2318,0.2403,0.2446,0.253,0.2604,0.2691,0.2772,0.2866,0.2934,0.3021,0.302,0.307,0.3117,0.3156,0.32,0.3142,0.3191,0.3192,0.3003,0.3074,0.3178,0.326,0.3263,0.3265,0.3266,0,0.2185,0.2241,0.2324,0.2436,0.2466,0.253,0.2661,0.2736,0.2871,0.2938,0.3041,0.3096,0.3201,0.3176,0.3284,0.3254,0.3273,0.3287,0.329,0.3089,0.3022,0.3165,0.3289,0.3287,0.3286,0.3284,0.3283,0,0.2122,0.224,0.231,0.235,0.2481,0.2551,0.2634,0.2768,0.2851,0.3001,0.3078,0.3188,0.3272,0.3318,0.3369,0.3344,0.3465,0.3421,0.3262,0.3249,0.3366,0.3352,0.3489,0.3489,0.3489,0.3489,0.3489,0,0.209,0.215,0.2295,0.233,0.2426,0.2533,0.2649,0.2748,0.2902,0.2987,0.3121,0.3193,0.3318,0.3399,0.341,0.3378,0.3502,0.3282,0.3259,0.3396,0.3385,0.3375,0.336,0.3492,0.3491,0.3491,0.349,0,0.2004,0.2101,0.2188,0.2342,0.24,0.2472,0.2659,0.2727,0.2894,0.3014,0.3074,0.3247,0.3333,0.3425,0.3507,0.3416,0.3409,0.3366,0.3526,0.3509,0.3152,0.3142,0.3178,0.3172,0.3167,0.3163,0.3159,0,0.196,0.2,0.2178,0.2233,0.2314,0.2441,0.2519,0.2704,0.2774,0.3005,0.3039,0.321,0.3291,0.3254,0.3361,0.337,0.3332,0.3306,0.3204,0.3148,0.3123,0.312,0.3116,0.3151,0.3149,0.3148,0.3147,0,0.1875,0.1962,0.2033,0.2149,0.2246,0.2333,0.2463,0.2502,0.2693,0.2876,0.2924,0.2972,0.3068,0.3116,0.3162,0.3158,0.3303,0.325,0.3259,0.3164,0.3115,0.3094,0.3097,0.3129,0.3131,0.3133,0.3134,0,0.1818,0.1845,0.1954,0.2038,0.215,0.2184,0.2271,0.2344,0.2441,0.2683,0.2689,0.2859,0.3023,0.3009,0.3045,0.3036,0.2978,0.2864,0.2893,0.2914,0.279,0.2687,0.2557,0,0,0,0,0,0.1742,0.1756,0.1828,0.1901,0.2004,0.2065,0.221,0.2296,0.248,0.2442,0.2558,0.2622,0.2675,0.2773,0.2709,0.2941,0.3,0.2855,0.2887,0.3029,0.305,0.2929,0,0,0,0,0,0,0.1689,0.1751,0.1775,0.1769,0.1789,0.1874,0.1954,0.2079,0.2069,0.2267,0.231,0.2463,0.256,0.2678,0.2657,0.2687,0.2653,0.2972,0.2965,0.3017,0.3036,0.3053,0.2936,0,0,0,0,0]},{"header":{"parameterUnit":"m.s-1","parameterCategory":2,"la1":30.2991,"la2":30.254,"lo1":-89.0895,"lo2":-89.0444,"dy":0.0017,"dx":0.0017,"nx":28,"ny":28,"refTime":"2025-01-13T03:00:00:Z","depth":"4","parameterNumber":3,"parameterNumberName":"V-component_of_CURRENTS"},"data":[0,0,0,0,0,0,0,0,0,0,0,0,0,0,0,0,0,0,0,0,0,0,0,0,0,0,0,0,0,0,0,0,0,0,0,0,0,0,0,0,0,0,0,0,0,0,0,0,0,0,0,0,0,0,0,0,0,0,0.0139,0.0139,0,0.0089,0.0089,0.0088,0.0053,0.0053,0.0053,0.0053,-0.0015,-0.0017,-0.0019,0,0,0,0,0,0,0,0,0,0,0,0,0,0.0159,0.0159,0.0139,0.0139,0.0138,0.0089,0.0088,0.0088,0.0053,0.0053,0.0053,0.0053,-0.0015,-0.0017,-0.0019,0,0,0,0,0,0,0,0,0,0,0,0,0,0.0133,0.0159,0.0139,0.0116,0.0113,0.0089,0.0088,0.0087,0.0053,0.0053,0.0053,0.0053,-0.0014,-0.0017,-0.0019,-0.003,0,0,-0.0027,-0.0028,0,0,0,0,0,0,0,0,0.0134,0.0132,0.012,0.0117,0.0115,0.0078,0.0071,0.0048,0.0053,0.0075,0.0053,0.0053,0.0015,0.001,0.0,-0.0033,-0.0036,-0.0027,-0.0028,-0.0029,-0.003,0,0,0,0,0,0,0,0.0136,0.0134,0.0118,0.0119,0.0116,0.0092,0.0089,0.0066,0.0046,0.0073,0.0071,0.0067,0.0013,0.0003,-0.0002,-0.0037,-0.0027,-0.0029,-0.0031,-0.0032,-0.0083,-0.0083,0,0,0,0,0,0,0.0148,0.0136,0.012,0.0117,0.0125,0.0092,0.0088,0.0089,0.0046,0.004,0.0067,0.0066,0.0007,0.0001,-0.0004,-0.0006,-0.0029,-0.0032,-0.0033,-0.0083,-0.0083,-0.0083,0,0,0,0,0,0,0.0148,0.0147,0.0122,0.0126,0.0121,0.0093,0.0094,0.0088,0.008,0.0042,0.0035,0.0065,0.0007,-0.0001,-0.0019,-0.001,-0.0033,-0.0035,-0.0083,-0.0083,-0.0083,-0.0019,0,0,0,0,0,0,0.0149,0.0147,0.0152,0.0127,0.0121,0.0116,0.0094,0.0088,0.0078,0.0076,0.0038,0.0031,0.0006,-0.0015,-0.0021,-0.0014,-0.0037,-0.0084,-0.0083,-0.0083,-0.0021,-0.0017,-0.0013,0,0,0,0,0,0.015,0.0162,0.0153,0.0151,0.0129,0.0117,0.0112,0.009,0.0079,0.008,0.0054,0.0033,-0.0018,-0.0016,-0.0024,-0.0017,-0.0084,-0.0083,-0.0083,-0.0023,-0.0018,-0.0013,0,0,0,0,0,0,0.0173,0.0159,0.0148,0.0155,0.014,0.0112,0.0112,0.0095,0.0075,0.0073,0.0036,0.0027,0.0014,-0.0011,-0.0009,-0.0033,-0.0055,-0.0056,-0.0007,-0.0002,0.0002,0.0021,-0.0039,0,0,0,0,0,0.0181,0.0186,0.0165,0.0171,0.0166,0.0139,0.0131,0.0117,0.0096,0.0087,0.006,0.0031,0.0008,-0.0003,-0.0029,-0.0039,-0.0071,-0.0042,-0.0037,-0.0033,-0.0024,-0.0068,-0.0067,-0.0082,-0.0082,-0.0082,0,0,0.0191,0.0184,0.0187,0.0176,0.0162,0.0167,0.0134,0.0129,0.0132,0.0083,0.0078,0.0045,0.0008,-0.0004,-0.0013,-0.0023,-0.0046,-0.0033,-0.0029,-0.0022,-0.0067,-0.0066,-0.0065,-0.0082,-0.0082,-0.0082,0,0,0.0218,0.0209,0.0224,0.0217,0.0204,0.0189,0.0191,0.0166,0.0155,0.0143,0.0109,0.0084,0.0048,0.0025,0.0008,0.002,-0.0023,0.0009,0.0049,0.0006,0.0007,0.0008,-0.0029,-0.0032,0.0013,0.0013,0.0013,0,0.023,0.0248,0.0225,0.0238,0.0241,0.0204,0.0223,0.0206,0.0178,0.0174,0.0151,0.0097,0.0064,0.0051,0.0053,0.0032,0.0001,0.0035,0.0013,0.0013,0.0012,-0.0026,-0.003,0.0016,0.0016,0.0016,0.0015,0,0.0268,0.0282,0.0292,0.0299,0.0297,0.0307,0.0285,0.0279,0.0257,0.0237,0.0214,0.0161,0.0132,0.0113,0.0087,0.0071,0.0048,0.0023,0.0004,0.0018,-0.0024,-0.0029,0.0021,0.002,0.0019,0.0018,0,0,0.0298,0.0316,0.0321,0.0341,0.0333,0.034,0.0345,0.0342,0.0353,0.0305,0.0309,0.0254,0.022,0.0198,0.0155,0.0116,0.0082,0.0075,0.0071,0.0046,-0.0011,-0.0021,-0.0029,0.0051,0.005,0.005,-0.0037,0,0.0337,0.0381,0.0378,0.0422,0.0444,0.0422,0.0435,0.0425,0.0402,0.0393,0.0329,0.0313,0.0254,0.0242,0.0193,0.0113,0.0069,0.0108,-0.0027,-0.0031,-0.0036,-0.0035,0.0048,-0.0042,-0.0043,-0.0044,-0.0045,0,0.0379,0.0405,0.0456,0.0494,0.0503,0.0521,0.054,0.0548,0.0521,0.0499,0.046,0.0411,0.0355,0.0298,0.0165,0.0192,0.0101,0.0029,0.0023,-0.001,-0.0051,-0.0062,-0.0056,-0.0055,-0.0054,-0.0053,-0.0053,0,0.0417,0.0464,0.0511,0.0523,0.0552,0.0574,0.0589,0.0581,0.0606,0.0569,0.0575,0.0486,0.0453,0.0326,0.018,0.0172,0.0026,-0.0006,-0.0104,-0.0106,-0.0098,-0.0098,-0.0103,-0.0103,-0.0103,-0.0103,-0.0102,0,0.046,0.0501,0.0536,0.0561,0.0629,0.0626,0.0687,0.0682,0.0691,0.0726,0.0638,0.0634,0.0458,0.0357,0.0207,0.004,0.0043,-0.0093,-0.0128,-0.007,-0.0066,-0.0103,-0.0101,-0.0106,-0.0105,-0.0105,-0.0104,0,0.0494,0.0514,0.0577,0.0623,0.0649,0.0696,0.0768,0.0807,0.0801,0.0841,0.0838,0.0749,0.061,0.0429,0.0221,0.009,-0.0078,-0.0142,-0.0055,-0.0084,-0.019,-0.0185,-0.0257,-0.0258,-0.0259,-0.0259,-0.026,0,0.0514,0.0549,0.0629,0.0677,0.0703,0.0776,0.0831,0.0858,0.0904,0.0911,0.0934,0.0827,0.0738,0.0449,0.0238,-0.0046,-0.0095,-0.0187,-0.0201,-0.0179,-0.0206,-0.0199,-0.0192,-0.0261,-0.0262,-0.0262,-0.0262,0,0.0553,0.0582,0.0633,0.0734,0.0803,0.0891,0.0968,0.1012,0.1041,0.1045,0.1015,0.0865,0.0705,0.0463,0.0242,0.0033,-0.013,-0.0197,-0.0197,-0.0212,-0.0186,-0.021,-0.0203,-0.0265,-0.0265,-0.0265,-0.0264,0,0.0585,0.0628,0.0698,0.0787,0.0881,0.0969,0.101,0.106,0.1105,0.1105,0.1092,0.0911,0.0809,0.0504,0.0301,0.0095,0.0031,-0.005,-0.0058,-0.0058,0.0017,0.008,0.0058,0,0,0,0,0,0.0614,0.0663,0.0747,0.0842,0.0935,0.0995,0.1088,0.1118,0.1149,0.1141,0.112,0.0969,0.0668,0.0543,0.0336,0.0263,-0.0016,0.001,-0.0117,-0.0283,-0.0279,-0.0228,0,0,0,0,0,0,0.063,0.0709,0.0747,0.0869,0.0943,0.1053,0.1114,0.1139,0.1134,0.1132,0.0984,0.0907,0.0623,0.0793,0.0332,0.027,0.0156,-0.0126,-0.0131,-0.0285,-0.0281,-0.0279,-0.0225,0,0,0,0,0]}]]